GW7273 Weather Reports


time (UTC)temp
F
wind
direction
speed
knots
gust
knots
rain 1hr
in
rain 24hr
in
rain mn
in
humidity
%
barometer
mb
20260506133042 65 300 1.7 7.8 0.00 0.00 0.00 64 1005.4
20260506131540 66 276 5.2 8.7 0.00 0.00 0.00 62 1005.2
20260506130037 66 327 2.6 11.3 0.00 0.00 0.00 63 1005.4
20260506124544 65 197 3.5 10.4 0.00 0.00 0.00 62 1005.2
20260506123044 65 274 3.5 8.7 0.00 0.00 0.00 63 1005.3
20260506121543 63 248 2.6 7.0 0.00 0.00 0.00 67 1005.4
20260506120043 63 199 2.6 6.1 0.00 0.00 0.00 69 1005.3
20260506114546 63 103 1.7 3.5 0.00 0.00 0.00 68 1005.3
20260506113039 62 214 2.6 5.2 0.00 0.00 0.00 69 1005.4
20260506111542 61 219 1.7 5.2 0.00 0.00 0.00 70 1005.6
20260506110050 63 194 3.5 8.7 0.00 0.00 0.00 67 1005.5
20260506104540 63 274 0.9 4.3 0.00 0.00 0.00 69 1005.6
20260506103046 61 165 2.6 7.0 0.00 0.00 0.00 70 1005.7
20260506101549 61 203 2.6 9.6 0.00 0.00 0.00 70 1005.6
20260506100042 61 262 2.6 6.1 0.00 0.00 0.00 71 1005.6
20260506094552 60 231 3.5 7.8 0.00 0.00 0.00 70 1005.6
20260506093046 60 224 3.5 8.7 0.00 0.00 0.00 71 1005.6
20260506091540 59 216 4.3 7.8 0.00 0.00 0.00 72 1005.4
20260506090043 59 278 4.3 11.3 0.00 0.00 0.00 72 1005.4
20260506084536 59 206 3.5 10.4 0.00 0.00 0.00 72 1005.2
20260506083045 59 248 2.6 7.8 0.00 0.00 0.00 72 1005.0
20260506081541 58 240 4.3 8.7 0.00 0.00 0.00 73 1005.2
20260506073046 54 160 1.7 2.6 0.00 0.00 0.00 83 1005.3
20260506071600 54 212 0.9 2.6 0.00 0.00 0.00 80 1005.1
20260506061541 54 143 0.9 5.2 0.00 0.00 0.00 78 1004.9
20260506044541 51 111 1.7 7.0 0.00 0.00 0.00 86 1004.9
20260506043040 50 98 0.9 6.1 0.00 0.00 0.00 88 1005.1
20260506041556 50 6 1.7 6.1 0.00 0.00 0.00 88 1005.0
20260506040043 49 12 1.7 6.1 0.00 0.00 0.00 89 1005.0
20260506034545 49 334 1.7 7.8 0.00 0.01 0.00 89 1005.3
20260506033041 49 78 1.7 4.3 0.00 0.01 0.00 89 1005.4
20260506031540 49 82 1.7 6.1 0.00 0.01 0.00 89 1005.4
20260506030037 49 96 1.7 7.0 0.00 0.01 0.00 88 1005.6
20260506024544 49 11 1.7 7.0 0.00 0.03 0.00 88 1005.8
20260506023043 49 47 1.7 6.1 0.00 0.03 0.00 89 1005.8
20260506021541 49 330 1.7 6.1 0.00 0.03 0.00 89 1005.9
20260506020040 49 9 1.7 5.2 0.00 0.03 0.00 88 1006.0
20260506014545 50 75 2.6 7.0 0.00 0.03 0.00 88 1006.1
20260506013039 50 45 1.7 7.8 0.00 0.03 0.00 87 1006.1
20260506011543 50 44 2.6 6.1 0.00 0.03 0.00 87 1006.2
20260506010047 50 2 2.6 8.7 0.00 0.03 0.00 87 1006.3
20260506004543 51 343 2.6 6.1 0.00 0.03 0.00 86 1006.4
20260506003041 51 10 2.6 7.8 0.00 0.03 0.00 86 1006.5
20260506001557 51 13 3.5 7.0 0.00 0.03 0.00 86 1006.7
20260506000044 51 50 1.7 7.0 0.00 0.03 0.00 85 1006.7
20260505234546 51 313 1.7 5.2 0.00 0.03 0.00 85 1006.9
20260505233047 51 57 1.7 7.8 0.00 0.03 0.00 84 1006.9
20260505231550 51 30 2.6 7.8 0.00 0.03 0.00 84 1007.0
20260505230041 51 356 1.7 6.1 0.00 0.03 0.00 83 1007.2
20260505224543 52 68 1.7 4.3 0.00 0.03 0.00 82 1007.4
20260505223042 52 87 0.9 5.2 0.00 0.03 0.00 82 1007.3
20260505221549 53 3 1.7 4.3 0.00 0.03 0.00 81 1007.5
20260505220044 53 101 1.7 5.2 0.00 0.03 0.00 79 1007.7
20260505214556 53 65 0.9 5.2 0.00 0.03 0.03 80 1007.8
20260505213053 53 5 0.9 5.2 0.00 0.03 0.03 80 1007.7
20260505211542 54 89 1.7 4.3 0.00 0.03 0.03 80 1007.8
20260505210042 54 1 0.9 5.2 0.00 0.03 0.03 80 1007.8
20260505204541 54 57 2.6 6.1 0.00 0.03 0.03 79 1007.8
20260505203046 54 342 1.7 6.1 0.00 0.03 0.03 78 1007.8
20260505201549 55 9 1.7 8.7 0.00 0.03 0.03 78 1007.8
20260505200037 55 110 2.6 7.0 0.00 0.03 0.03 77 1007.6
20260505194541 55 15 2.6 7.8 0.00 0.03 0.03 77 1007.9
20260505193048 56 356 1.7 3.5 0.00 0.03 0.03 77 1008.0
20260505191550 56 2 1.7 4.3 0.00 0.03 0.03 76 1008.1
20260505190053 56 359 3.5 6.1 0.00 0.03 0.03 76 1008.1
20260505184542 57 17 2.6 6.1 0.00 0.03 0.03 75 1008.0
20260505183047 57 25 1.7 6.1 0.00 0.03 0.03 74 1008.0
20260505181544 58 341 0.0 4.3 0.00 0.03 0.03 73 1007.8
20260505180049 58 37 1.7 5.2 0.00 0.03 0.03 72 1007.9
20260505174543 58 347 1.7 7.0 0.00 0.03 0.03 71 1007.7
20260505173043 58 125 2.6 5.2 0.00 0.03 0.03 71 1007.8
20260505171542 59 244 2.6 6.1 0.00 0.03 0.03 70 1007.9
20260505170054 59 54 1.7 7.0 0.00 0.03 0.03 70 1007.8
20260505164540 59 25 1.7 7.8 0.00 0.03 0.03 70 1007.9
20260505163042 59 17 1.7 7.0 0.00 0.03 0.03 69 1008.2
20260505161541 59 54 3.5 8.7 0.00 0.03 0.03 69 1008.3
20260505153052 60 343 3.5 11.3 0.00 0.03 0.03 67 1008.5
20260505151542 60 354 6.1 13.0 0.00 0.03 0.03 67 1008.7